Terminal Aerodrome Forecast
Issued by NWS Jacksonville, FL

Home | Current Version | Previous Version | Text Only | Print | Product List | Glossary On
Versions: 1 2 3 4 5 6 7 8 9 10 11 12 13 14 15 16 17 18 19 20 21 22 23 24 25 26 27 28 29 30 31 32
956
FTUS42 KJAX 181003 AAC
TAFJAX
TAF AMD
KJAX 181003Z 1810/1906 26005KT P6SM OVC006
     FM181100 22002KT 5SM BR OVC004
     FM181430 24004KT P6SM BKN007
     FM181630 27005KT P6SM SCT015 BKN100
     FM181800 05005KT P6SM SCT025 BKN100
     FM182000 09008KT P6SM SCT100
     FM190300 09003KT 6SM BR SCT250=

USA.gov is the U.S. government's official web portal to all federal, state and local government web resources and services.